Zurück zum Katalog

STARLINK-4399

AktivKommunikationSSO
NORAD 53469·PAYLOAD·🇺🇸 United States

Gestartet Aug 12, 2022 von Vandenberg Space Force Base

Loading…

Nächste Überflüge (nächste 24 Stunden)

TLE

AktuellSource: CelesTrak SupGP

Epoche: Sep 14, 2026, 20:53 UTC

1 53469C 22099E   26257.87062500 -.00025675  00000+0 -79699-3 0  2575
2 53469  97.2865  15.6738 0001009  98.8174  22.3368 15.33453157    15

Verfolge STARLINK-4399 in Echtzeit mit AllMySat

Download on the App Store